Вернуться в каталог

STARLINK-31178

АктивенСвязьVLEO
NORAD 59025·PAYLOAD·🇺🇸 United States

Запущен Feb 25, 2024 с Cape Canaveral Space Force Station

Loading…

Ближайшие Пролёты (ближайшие 24 часа)

TLE

СвежийSource: CelesTrak SupGP

Эпоха: Sep 15, 2026, 01:48 UTC

1 59025C 24038C   26258.07548611 -.00028610  00000+0 -10361-2 0  2582
2 59025  43.0036  37.6377 0001454 269.8158 329.4670 15.27596916    18

Отслеживайте STARLINK-31178 в реальном времени с AllMySat

Download on the App Store